GW3608 Weather Reports


Display with metric or nautical units.
time (UTC)temp
F
wind
direction
speed
MPH
gust
MPH
rain 1hr
in
rain 24hr
in
rain mn
in
humidity
%
barometer
mb
20260505224511 61 250 0.0 3.0 0.01 0.03 0.03 83 1007.7
20260505223014 62 303 0.0 0.0 0.01 0.03 0.03 83 1007.5
20260505221522 62 178 0.0 1.0 0.00 0.02 0.02 80 1007.9
20260505220006 63 121 0.0 2.0 0.00 0.02 0.02 79 1007.0
20260505214510 64 197 0.0 1.0 0.00 0.02 0.02 77 1007.2
20260505213015 65 253 0.0 2.0 0.00 0.02 0.02 73 1006.9
20260505211520 65 146 0.0 4.0 0.00 0.02 0.02 74 1006.8
20260505210024 64 153 0.0 4.0 0.00 0.02 0.02 75 1007.0
20260505204508 63 238 0.0 2.0 0.01 0.02 0.02 76 1007.1
20260505203015 61 256 1.0 4.0 0.01 0.02 0.02 80 1007.4
20260505201515 61 267 1.0 5.0 0.01 0.02 0.02 81 1007.4
20260505200020 61 282 0.0 12.0 0.01 0.02 0.02 81 1007.6
20260505194526 70 270 7.0 13.0 0.00 0.01 0.01 56 1007.9
20260505193010 73 157 1.0 8.0 0.00 0.01 0.01 40 1005.3
20260505191515 75 121 2.0 10.0 0.00 0.01 0.01 39 1005.1
20260505190018 76 263 3.0 9.0 0.00 0.01 0.01 41 1005.2
20260505184522 75 262 1.0 10.0 0.00 0.01 0.01 45 1005.6
20260505183034 74 271 2.0 7.0 0.00 0.01 0.01 51 1005.9
20260505181514 72 228 1.0 10.0 0.00 0.01 0.01 54 1006.4
20260505180038 72 82 3.0 10.0 0.00 0.01 0.01 51 1006.6
20260505174520 73 225 1.0 8.0 0.00 0.01 0.01 50 1006.7
20260505173026 72 183 1.0 10.0 0.00 0.01 0.01 51 1006.8
20260505171531 72 248 2.0 9.0 0.00 0.01 0.01 49 1006.8
20260505170014 74 232 2.0 7.0 0.00 0.01 0.01 49 1006.3
20260505164518 73 119 1.0 11.0 0.00 0.01 0.01 48 1006.4
20260505163027 73 30 1.0 7.0 0.00 0.01 0.01 49 1006.7
20260505161524 73 259 1.0 7.0 0.00 0.01 0.01 48 1006.9
20260505153022 73 168 2.0 9.0 0.00 0.01 0.01 47 1007.1
20260505151524 72 232 2.0 9.0 0.00 0.01 0.01 48 1007.1
20260505124512 61 134 0.0 7.0 0.00 0.01 0.01 68 1008.4
20260505123026 60 58 0.0 3.0 0.01 0.01 0.01 70 1008.2
20260505121520 59 253 0.0 3.0 0.01 0.01 0.01 74 1008.2
20260505120026 58 145 0.0 1.0 0.01 0.01 0.01 77 1008.1
20260505114508 58 208 0.0 10.0 0.01 0.01 0.01 73 1007.7
20260505113009 59 229 1.0 7.0 0.00 0.00 0.00 70 1008.0
20260505111520 60 159 0.0 4.0 0.00 0.00 0.00 62 1008.2
20260505101529 59 103 0.0 3.0 0.00 0.00 0.00 63 1007.7
20260505100044 59 157 0.0 4.0 0.00 0.00 0.00 62 1007.5
20260505094530 58 190 0.0 4.0 0.00 0.00 0.00 63 1007.3
20260505093025 58 150 0.0 1.0 0.00 0.00 0.00 63 1007.2
20260505091514 59 213 0.0 2.0 0.00 0.00 0.00 61 1007.2
20260505090018 59 218 0.0 5.0 0.00 0.00 0.00 60 1007.0
20260505084522 59 148 0.0 4.0 0.00 0.00 0.00 60 1007.1
20260505083026 59 157 0.0 2.0 0.00 0.00 0.00 60 1007.0
20260505081526 59 148 1.0 3.0 0.00 0.00 0.00 59 1007.0
20260505080014 59 148 0.0 2.0 0.00 0.00 0.00 59 1007.1
20260505074518 59 145 0.0 2.0 0.00 0.00 0.00 58 1007.2
20260505073034 59 164 0.0 2.0 0.00 0.00 0.00 57 1007.2
20260505071524 60 163 0.0 3.0 0.00 0.00 0.00 57 1007.2
20260505070027 60 71 0.0 5.0 0.00 0.00 0.00 56 1007.2
20260505064519 60 184 0.0 6.0 0.00 0.00 0.00 56 1007.2
20260505063022 60 137 0.0 5.0 0.00 0.00 0.00 55 1007.2
20260505061528 60 163 0.0 4.0 0.00 0.00 0.00 55 1007.2
20260505060026 60 146 0.0 5.0 0.00 0.00 0.00 55 1007.3
20260505054529 59 123 0.0 2.0 0.00 0.00 0.00 56 1007.4
20260505053030 59 165 0.0 6.0 0.00 0.00 0.00 55 1007.4
20260505051536 60 214 0.0 3.0 0.00 0.00 0.00 54 1007.5
20260505041524 56 121 0.0 0.0 0.00 0.00 0.00 62 1007.4
20260505040025 58 121 0.0 2.0 0.00 0.00 0.00 58 1007.4
20260505034526 60 148 0.0 3.0 0.00 0.00 0.00 54 1007.3
20260505033028 60 120 0.0 4.0 0.00 0.00 0.00 53 1007.3
20260505031536 61 159 1.0 5.0 0.00 0.00 0.00 51 1007.2
20260505030023 62 155 1.0 6.0 0.00 0.00 0.00 50 1007.2
20260505024524 62 171 1.0 5.0 0.00 0.00 0.00 50 1007.3
20260505023028 62 165 1.0 4.0 0.00 0.00 0.00 48 1007.4
20260505021533 63 135 0.0 10.0 0.00 0.00 0.00 46 1007.4
20260505020036 63 126 0.0 5.0 0.00 0.00 0.00 45 1007.3
20260505014509 64 300 0.0 6.0 0.00 0.00 0.00 45 1007.4
20260505013008 63 132 1.0 5.0 0.00 0.00 0.00 45 1007.1
20260505011511 64 173 1.0 5.0 0.00 0.00 0.00 44 1007.1
20260505010019 64 162 0.0 4.0 0.00 0.00 0.00 44 1006.9
20260505004512 64 194 1.0 7.0 0.00 0.00 0.00 43 1006.8
20260505003011 64 164 0.0 5.0 0.00 0.00 0.00 43 1006.7
20260505001510 65 132 0.0 5.0 0.00 0.00 0.00 43 1006.5
20260505000014 66 151 1.0 5.0 0.00 0.00 0.00 41 1006.5
20260504234514 66 154 1.0 7.0 0.00 0.00 0.00 40 1006.5
20260504233013 67 174 0.0 6.0 0.00 0.00 0.00 39 1006.3
20260504231515 68 254 1.0 8.0 0.00 0.00 0.00 39 1006.2
20260504230013 68 209 2.0 7.0 0.00 0.00 0.00 37 1006.1